Location: Kumla
(59.1265°N, 15.1401°E)
Time: 04:49:32
(UTC+02:00)

ISS - Visible Passes

Search period start: 18 May 2021 00:00
Search period end: 28 May 2021 00:00
Orbit: 417 x 422 km, 51.6° (Epoch: 17 May)

Date Brightness Start Highest point End Pass type
(mag) Time Alt. Az. Time Alt. Az. Time Alt. Az.
18 May -2.3 01:20:04 10° WSW 01:22:31 19° SSW 01:22:53 18° S visible
18 May -2.4 22:56:28 10° SW 22:59:06 22° S 23:01:46 10° ESE visible
19 May -2.4 00:32:37 10° WSW 00:35:15 21° S 00:36:28 17° SSE visible
19 May -2.5 23:45:15 10° WSW 23:47:56 22° S 23:50:16 12° SE visible
20 May -1.7 01:22:14 10° WSW 01:23:12 13° SW 01:23:12 13° SW visible
20 May -2.5 22:57:54 10° SW 23:00:38 23° S 23:03:23 10° SE visible
21 May -2.1 00:34:33 10° WSW 00:36:43 16° SSW 00:37:06 16° SSW visible
21 May -2.2 23:47:00 10° WSW 23:49:27 19° SSW 23:51:03 14° SSE visible
22 May -2.3 22:59:33 10° WSW 23:02:09 21° S 23:04:46 10° SE visible
23 May -1.5 00:37:21 10° SW 00:37:58 11° SSW 00:37:58 11° SSW visible
23 May -1.7 23:49:09 10° WSW 23:50:51 13° SSW 23:51:58 12° S visible
24 May -1.9 23:01:27 10° WSW 23:03:36 16° SSW 23:05:46 10° SSE visible
26 May -1.4 23:04:15 10° SW 23:04:56 10° SSW 23:05:39 10° SSW visible
